| time (UTC) | temp C | wind direction | speed KPH | gust KPH | rain 1hr cm | rain 24hr cm | rain mn cm | humidity % | barometer mb |
| 20260506132104 | 21 | 214 | 8.0 | 11.3 | 0.00 | 0.00 | 0.00 | 78 | 1014.0 |
| 20260506131602 | 21 | 193 | 4.8 | 8.0 | 0.00 | 0.00 | 0.00 | 79 | 1013.9 |
| 20260506131058 | 21 | 154 | 6.4 | 8.0 | 0.00 | 0.00 | 0.00 | 79 | 1013.8 |
| 20260506130555 | 21 | 159 | 6.4 | 9.7 | 0.00 | 0.00 | 0.00 | 79 | 1014.0 |
| 20260506130053 | 21 | 172 | 3.2 | 9.7 | 0.00 | 0.00 | 0.00 | 81 | 1014.0 |
| 20260506125551 | 20 | 165 | 4.8 | 8.0 | 0.00 | 0.00 | 0.00 | 81 | 1014.2 |
| 20260506125048 | 20 | 184 | 4.8 | 8.0 | 0.00 | 0.00 | 0.00 | 82 | 1014.2 |
| 20260506124546 | 20 | 196 | 6.4 | 9.7 | 0.00 | 0.00 | 0.00 | 82 | 1014.2 |
| 20260506124043 | 20 | 232 | 3.2 | 3.2 | 0.00 | 0.00 | 0.00 | 83 | 1014.4 |
| 20260506123541 | 20 | 202 | 3.2 | 4.8 | 0.00 | 0.00 | 0.00 | 83 | 1014.7 |
| 20260506123039 | 20 | 158 | 4.8 | 8.0 | 0.00 | 0.00 | 0.00 | 83 | 1014.4 |
| 20260506122535 | 20 | 180 | 0.0 | 1.6 | 0.00 | 0.00 | 0.00 | 84 | 1014.3 |
| 20260506122034 | 19 | 243 | 4.8 | 4.8 | 0.00 | 0.00 | 0.00 | 84 | 1014.3 |
| 20260506121531 | 19 | 158 | 1.6 | 3.2 | 0.00 | 0.00 | 0.00 | 85 | 1014.4 |
| 20260506121027 | 18 | 193 | 4.8 | 8.0 | 0.00 | 0.00 | 0.00 | 85 | 1014.3 |
| 20260506120525 | 18 | 184 | 4.8 | 8.0 | 0.00 | 0.00 | 0.00 | 86 | 1014.5 |
| 20260506120022 | 18 | 186 | 3.2 | 4.8 | 0.00 | 0.00 | 0.00 | 86 | 1014.7 |
| 20260506115520 | 18 | 189 | 1.6 | 1.6 | 0.00 | 0.00 | 0.00 | 86 | 1014.4 |
| 20260506115018 | 18 | 171 | 6.4 | 8.0 | 0.00 | 0.00 | 0.00 | 86 | 1014.4 |
| 20260506114515 | 18 | 210 | 1.6 | 3.2 | 0.00 | 0.00 | 0.00 | 86 | 1014.5 |
| 20260506114014 | 18 | 218 | 1.6 | 1.6 | 0.00 | 0.00 | 0.00 | 87 | 1014.9 |
| 20260506113511 | 18 | 207 | 4.8 | 4.8 | 0.00 | 0.00 | 0.00 | 87 | 1014.5 |
| 20260506113008 | 18 | 187 | 1.6 | 1.6 | 0.00 | 0.00 | 0.00 | 87 | 1014.4 |
| 20260506112505 | 18 | 208 | 4.8 | 8.0 | 0.00 | 0.00 | 0.00 | 87 | 1014.1 |
| 20260506112002 | 18 | 149 | 4.8 | 4.8 | 0.00 | 0.00 | 0.00 | 88 | 1014.3 |
| 20260506111500 | 17 | 177 | 6.4 | 9.7 | 0.00 | 0.00 | 0.00 | 88 | 1014.4 |
| 20260506110957 | 17 | 182 | 4.8 | 8.0 | 0.00 | 0.00 | 0.00 | 89 | 1014.4 |
| 20260506110455 | 17 | 182 | 3.2 | 3.2 | 0.00 | 0.00 | 0.00 | 89 | 1014.1 |
| 20260506105951 | 17 | 203 | 4.8 | 4.8 | 0.00 | 0.00 | 0.00 | 89 | 1014.0 |
| 20260506105447 | 17 | 203 | 4.8 | 4.8 | 0.00 | 0.00 | 0.00 | 89 | 1014.1 |
| 20260506104945 | 17 | 160 | 4.8 | 4.8 | 0.00 | 0.00 | 0.00 | 89 | 1014.2 |
| 20260506104443 | 17 | 150 | 0.0 | 1.6 | 0.00 | 0.00 | 0.00 | 89 | 1014.3 |
| 20260506103941 | 17 | 201 | 4.8 | 4.8 | 0.00 | 0.00 | 0.00 | 90 | 1014.5 |
| 20260506103438 | 17 | 166 | 1.6 | 3.2 | 0.00 | 0.00 | 0.00 | 89 | 1014.4 |
| 20260506102935 | 17 | 148 | 3.2 | 3.2 | 0.00 | 0.00 | 0.00 | 90 | 1014.4 |
| 20260506102433 | 17 | 174 | 4.8 | 4.8 | 0.00 | 0.00 | 0.00 | 89 | 1014.4 |
| 20260506101930 | 17 | 161 | 3.2 | 4.8 | 0.00 | 0.00 | 0.00 | 89 | 1014.4 |
| 20260506101426 | 17 | 191 | 4.8 | 4.8 | 0.00 | 0.00 | 0.00 | 89 | 1014.2 |
| 20260506100924 | 17 | 187 | 1.6 | 1.6 | 0.00 | 0.00 | 0.00 | 90 | 1014.2 |
| 20260506100422 | 17 | 172 | 1.6 | 1.6 | 0.00 | 0.00 | 0.00 | 90 | 1013.9 |
| 20260506095919 | 17 | 146 | 1.6 | 1.6 | 0.00 | 0.00 | 0.00 | 90 | 1014.0 |
| 20260506095418 | 17 | 160 | 1.6 | 3.2 | 0.00 | 0.00 | 0.00 | 89 | 1013.9 |
| 20260506094914 | 17 | 148 | 3.2 | 4.8 | 0.00 | 0.00 | 0.00 | 89 | 1014.0 |
| 20260506094412 | 17 | 186 | 3.2 | 4.8 | 0.00 | 0.00 | 0.00 | 89 | 1014.0 |
| 20260506093910 | 17 | 192 | 4.8 | 4.8 | 0.00 | 0.00 | 0.00 | 89 | 1014.1 |
| 20260506093407 | 17 | 187 | 3.2 | 4.8 | 0.00 | 0.00 | 0.00 | 88 | 1014.0 |
| 20260506092905 | 17 | 173 | 1.6 | 3.2 | 0.00 | 0.00 | 0.00 | 88 | 1014.1 |
| 20260506092403 | 17 | 232 | 0.0 | 1.6 | 0.00 | 0.00 | 0.00 | 88 | 1014.1 |
| 20260506091859 | 17 | 181 | 3.2 | 4.8 | 0.00 | 0.00 | 0.00 | 88 | 1014.3 |
| 20260506091357 | 17 | 174 | 4.8 | 4.8 | 0.00 | 0.00 | 0.00 | 88 | 1014.2 |
| 20260506090854 | 17 | 186 | 1.6 | 3.2 | 0.00 | 0.00 | 0.00 | 88 | 1014.2 |
| 20260506090352 | 17 | 187 | 1.6 | 3.2 | 0.00 | 0.00 | 0.00 | 88 | 1014.5 |
| 20260506085848 | 17 | 150 | 1.6 | 1.6 | 0.00 | 0.00 | 0.00 | 88 | 1014.4 |
| 20260506085344 | 17 | 212 | 1.6 | 1.6 | 0.00 | 0.00 | 0.00 | 88 | 1014.6 |
| 20260506084841 | 17 | 185 | 1.6 | 1.6 | 0.00 | 0.00 | 0.00 | 88 | 1014.4 |
| 20260506084338 | 17 | 210 | 3.2 | 3.2 | 0.00 | 0.00 | 0.00 | 87 | 1014.5 |
| 20260506083834 | 17 | 239 | 0.0 | 1.6 | 0.00 | 0.00 | 0.00 | 88 | 1014.5 |
| 20260506083332 | 17 | 179 | 3.2 | 3.2 | 0.00 | 0.00 | 0.00 | 88 | 1014.5 |
| 20260506082829 | 17 | 186 | 1.6 | 3.2 | 0.00 | 0.00 | 0.00 | 88 | 1014.2 |
| 20260506082326 | 17 | 165 | 3.2 | 3.2 | 0.00 | 0.00 | 0.00 | 88 | 1014.3 |
| 20260506081822 | 17 | 207 | 1.6 | 3.2 | 0.00 | 0.00 | 0.00 | 88 | 1014.3 |
| 20260506081320 | 17 | 168 | 4.8 | 4.8 | 0.00 | 0.00 | 0.00 | 88 | 1014.4 |
| 20260506080817 | 17 | 197 | 1.6 | 1.6 | 0.00 | 0.00 | 0.00 | 88 | 1014.3 |
| 20260506080313 | 17 | 209 | 6.4 | 8.0 | 0.00 | 0.00 | 0.00 | 88 | 1014.1 |
| 20260506073258 | 17 | 177 | 4.8 | 4.8 | 0.00 | 0.00 | 0.00 | 87 | 1014.1 |
| 20260506072754 | 17 | 208 | 4.8 | 4.8 | 0.00 | 0.00 | 0.00 | 88 | 1014.2 |
| 20260506072252 | 17 | 151 | 3.2 | 3.2 | 0.00 | 0.00 | 0.00 | 87 | 1014.3 |
| 20260506071750 | 17 | 273 | 0.0 | 1.6 | 0.00 | 0.00 | 0.00 | 88 | 1014.2 |
| 20260506071247 | 18 | 179 | 6.4 | 8.0 | 0.00 | 0.00 | 0.00 | 88 | 1014.1 |
| 20260506070744 | 18 | 173 | 6.4 | 8.0 | 0.00 | 0.00 | 0.00 | 87 | 1014.3 |
| 20260506070241 | 18 | 190 | 6.4 | 8.0 | 0.00 | 0.00 | 0.00 | 87 | 1014.3 |
| 20260506062218 | 18 | 204 | 1.6 | 3.2 | 0.00 | 0.00 | 0.00 | 86 | 1014.5 |
| 20260506061714 | 18 | 170 | 6.4 | 9.7 | 0.00 | 0.00 | 0.00 | 86 | 1014.6 |
| 20260506061212 | 18 | 194 | 6.4 | 9.7 | 0.00 | 0.00 | 0.00 | 86 | 1014.8 |
| 20260506060710 | 18 | 193 | 3.2 | 4.8 | 0.00 | 0.00 | 0.00 | 86 | 1014.7 |
| 20260506060207 | 18 | 201 | 3.2 | 4.8 | 0.00 | 0.00 | 0.00 | 86 | 1015.0 |
| 20260506051139 | 18 | 165 | 1.6 | 1.6 | 0.00 | 0.00 | 0.00 | 86 | 1015.3 |
| 20260506050637 | 18 | 191 | 1.6 | 1.6 | 0.00 | 0.00 | 0.00 | 86 | 1015.6 |
| 20260506050134 | 18 | 153 | 0.0 | 1.6 | 0.00 | 0.00 | 0.00 | 86 | 1015.4 |
| 20260506045127 | 18 | 177 | 3.2 | 3.2 | 0.00 | 0.00 | 0.00 | 86 | 1015.6 |
| 20260506044625 | 18 | 138 | 3.2 | 3.2 | 0.00 | 0.00 | 0.00 | 86 | 1015.4 |
| 20260506044122 | 18 | 208 | 1.6 | 1.6 | 0.00 | 0.00 | 0.00 | 87 | 1015.5 |
| 20260506043619 | 18 | 170 | 4.8 | 9.7 | 0.00 | 0.00 | 0.00 | 87 | 1015.5 |
| 20260506043117 | 18 | 199 | 4.8 | 8.0 | 0.00 | 0.00 | 0.00 | 87 | 1015.7 |
| 20260506042616 | 18 | 199 | 3.2 | 4.8 | 0.00 | 0.00 | 0.00 | 87 | 1015.7 |
| 20260506042113 | 18 | 210 | 1.6 | 1.6 | 0.00 | 0.00 | 0.00 | 87 | 1015.5 |
| 20260506041612 | 18 | 258 | 0.0 | 0.0 | 0.00 | 0.00 | 0.00 | 87 | 1015.7 |
| 20260506041108 | 18 | 225 | 6.4 | 8.0 | 0.00 | 0.00 | 0.00 | 86 | 1015.7 |
| 20260506040606 | 18 | 216 | 0.0 | 1.6 | 0.00 | 0.00 | 0.00 | 86 | 1015.8 |
| 20260506035559 | 18 | 186 | 4.8 | 4.8 | 0.00 | 0.00 | 0.00 | 85 | 1015.6 |
| 20260506035056 | 18 | 168 | 4.8 | 8.0 | 0.00 | 0.00 | 0.00 | 85 | 1015.5 |
| 20260506034553 | 18 | 224 | 3.2 | 4.8 | 0.00 | 0.00 | 0.00 | 84 | 1015.5 |
| 20260506034050 | 18 | 172 | 4.8 | 8.0 | 0.00 | 0.00 | 0.00 | 84 | 1015.6 |
| 20260506033547 | 18 | 213 | 3.2 | 4.8 | 0.00 | 0.00 | 0.00 | 84 | 1015.5 |
| 20260506033044 | 18 | 168 | 8.0 | 9.7 | 0.00 | 0.00 | 0.00 | 83 | 1015.5 |
| 20260506032541 | 18 | 176 | 4.8 | 4.8 | 0.00 | 0.00 | 0.00 | 83 | 1015.6 |
| 20260506032032 | 18 | 179 | 8.0 | 11.3 | 0.00 | 0.00 | 0.00 | 82 | 1015.6 |
| 20260506031530 | 18 | 197 | 6.4 | 8.0 | 0.00 | 0.00 | 0.00 | 82 | 1015.6 |
| 20260506031027 | 18 | 185 | 4.8 | 8.0 | 0.00 | 0.00 | 0.00 | 81 | 1015.6 |
| 20260506030525 | 18 | 226 | 6.4 | 8.0 | 0.00 | 0.00 | 0.00 | 81 | 1015.6 |
| 20260506030022 | 18 | 171 | 4.8 | 9.7 | 0.00 | 0.00 | 0.00 | 81 | 1015.6 |
| 20260506025519 | 19 | 219 | 3.2 | 4.8 | 0.00 | 0.00 | 0.00 | 81 | 1015.6 |
| 20260506025015 | 19 | 190 | 4.8 | 4.8 | 0.00 | 0.00 | 0.00 | 80 | 1015.4 |
| 20260506024512 | 19 | 188 | 6.4 | 9.7 | 0.00 | 0.00 | 0.00 | 80 | 1015.8 |
| 20260506024008 | 19 | 173 | 4.8 | 8.0 | 0.00 | 0.00 | 0.00 | 79 | 1015.6 |
| 20260506023504 | 19 | 188 | 8.0 | 11.3 | 0.00 | 0.00 | 0.00 | 79 | 1015.7 |
| 20260506023002 | 19 | 172 | 8.0 | 11.3 | 0.00 | 0.00 | 0.00 | 80 | 1015.4 |
| 20260506022459 | 19 | 174 | 6.4 | 8.0 | 0.00 | 0.00 | 0.00 | 79 | 1015.6 |
| 20260506021957 | 19 | 183 | 6.4 | 9.7 | 0.00 | 0.00 | 0.00 | 79 | 1015.7 |
| 20260506021454 | 19 | 157 | 4.8 | 8.0 | 0.00 | 0.00 | 0.00 | 79 | 1015.5 |
| 20260506020951 | 20 | 186 | 4.8 | 8.0 | 0.00 | 0.00 | 0.00 | 78 | 1015.6 |
| 20260506020449 | 20 | 185 | 9.7 | 11.3 | 0.00 | 0.00 | 0.00 | 78 | 1015.6 |
| 20260506015946 | 20 | 183 | 8.0 | 9.7 | 0.00 | 0.00 | 0.00 | 76 | 1015.4 |
| 20260506015443 | 20 | 165 | 4.8 | 8.0 | 0.00 | 0.00 | 0.00 | 78 | 1015.6 |
| 20260506014940 | 20 | 171 | 6.4 | 9.7 | 0.00 | 0.00 | 0.00 | 77 | 1015.3 |
| 20260506014437 | 20 | 178 | 6.4 | 8.0 | 0.00 | 0.00 | 0.00 | 77 | 1015.3 |
| 20260506013933 | 20 | 183 | 6.4 | 9.7 | 0.00 | 0.00 | 0.00 | 77 | 1015.4 |
| 20260506013432 | 20 | 161 | 8.0 | 9.7 | 0.00 | 0.00 | 0.00 | 76 | 1015.1 |
| 20260506012928 | 20 | 173 | 8.0 | 9.7 | 0.00 | 0.00 | 0.00 | 74 | 1015.4 |
| 20260506012424 | 20 | 188 | 8.0 | 11.3 | 0.00 | 0.00 | 0.00 | 76 | 1015.3 |
| 20260506011921 | 20 | 181 | 6.4 | 8.0 | 0.00 | 0.00 | 0.00 | 76 | 1015.3 |
| 20260506011419 | 20 | 162 | 8.0 | 9.7 | 0.00 | 0.00 | 0.00 | 75 | 1015.3 |
| 20260506010915 | 20 | 185 | 6.4 | 8.0 | 0.00 | 0.00 | 0.00 | 75 | 1015.1 |
| 20260506010414 | 20 | 167 | 8.0 | 9.7 | 0.00 | 0.00 | 0.00 | 75 | 1015.1 |
| 20260506005910 | 20 | 197 | 9.7 | 12.9 | 0.00 | 0.00 | 0.00 | 75 | 1015.0 |
| 20260506005408 | 20 | 207 | 4.8 | 8.0 | 0.00 | 0.00 | 0.00 | 74 | 1014.8 |
| 20260506004903 | 20 | 218 | 4.8 | 8.0 | 0.00 | 0.00 | 0.00 | 73 | 1014.9 |
| 20260506004401 | 20 | 193 | 6.4 | 9.7 | 0.00 | 0.00 | 0.00 | 74 | 1015.1 |
| 20260506003857 | 20 | 222 | 4.8 | 8.0 | 0.00 | 0.00 | 0.00 | 73 | 1015.1 |
| 20260506003353 | 20 | 179 | 4.8 | 9.7 | 0.00 | 0.00 | 0.00 | 74 | 1014.8 |
| 20260506002850 | 21 | 205 | 4.8 | 4.8 | 0.00 | 0.00 | 0.00 | 75 | 1014.8 |
| 20260506002346 | 21 | 182 | 8.0 | 11.3 | 0.00 | 0.00 | 0.00 | 74 | 1014.6 |
| 20260506001841 | 21 | 184 | 6.4 | 8.0 | 0.00 | 0.00 | 0.00 | 73 | 1014.7 |
| 20260506001339 | 21 | 223 | 6.4 | 8.0 | 0.00 | 0.00 | 0.00 | 73 | 1014.5 |
| 20260506000836 | 21 | 168 | 4.8 | 4.8 | 0.00 | 0.00 | 0.00 | 72 | 1014.9 |
| 20260506000334 | 21 | 182 | 9.7 | 11.3 | 0.00 | 0.00 | 0.00 | 71 | 1014.8 |
| 20260505235830 | 21 | 186 | 8.0 | 9.7 | 0.00 | 0.00 | 0.00 | 70 | 1014.8 |
| 20260505235328 | 21 | 185 | 8.0 | 11.3 | 0.00 | 0.00 | 0.00 | 72 | 1014.6 |
| 20260505234824 | 21 | 191 | 8.0 | 8.0 | 0.00 | 0.00 | 0.00 | 72 | 1014.5 |
| 20260505234322 | 21 | 358 | 6.4 | 9.7 | 0.00 | 0.00 | 0.00 | 71 | 1014.4 |
| 20260505233819 | 21 | 165 | 6.4 | 8.0 | 0.00 | 0.00 | 0.00 | 71 | 1014.5 |
| 20260505233317 | 21 | 183 | 8.0 | 11.3 | 0.00 | 0.00 | 0.00 | 70 | 1014.2 |
| 20260505232814 | 21 | 150 | 11.3 | 16.1 | 0.00 | 0.00 | 0.00 | 69 | 1014.3 |
| 20260505232311 | 21 | 181 | 8.0 | 9.7 | 0.00 | 0.00 | 0.00 | 71 | 1014.3 |
| 20260505231808 | 22 | 175 | 8.0 | 11.3 | 0.00 | 0.00 | 0.00 | 70 | 1014.1 |
| 20260505231306 | 22 | 176 | 11.3 | 14.5 | 0.00 | 0.00 | 0.00 | 68 | 1014.1 |
| 20260505230804 | 22 | 170 | 8.0 | 9.7 | 0.00 | 0.00 | 0.00 | 69 | 1014.0 |
| 20260505230300 | 22 | 194 | 11.3 | 14.5 | 0.00 | 0.00 | 0.00 | 68 | 1014.0 |
| 20260505225757 | 22 | 135 | 9.7 | 11.3 | 0.00 | 0.00 | 0.00 | 67 | 1014.1 |
| 20260505225254 | 22 | 166 | 4.8 | 8.0 | 0.00 | 0.00 | 0.00 | 70 | 1013.9 |
| 20260505224749 | 22 | 193 | 8.0 | 11.3 | 0.00 | 0.00 | 0.00 | 69 | 1013.9 |
| 20260505224247 | 22 | 159 | 6.4 | 8.0 | 0.00 | 0.00 | 0.00 | 69 | 1014.0 |
| 20260505223745 | 22 | 154 | 8.0 | 9.7 | 0.00 | 0.00 | 0.00 | 69 | 1014.0 |
| 20260505223241 | 22 | 162 | 9.7 | 11.3 | 0.00 | 0.00 | 0.00 | 67 | 1013.9 |
| 20260505222737 | 22 | 181 | 8.0 | 11.3 | 0.00 | 0.00 | 0.00 | 67 | 1014.2 |
| 20260505222233 | 22 | 171 | 11.3 | 12.9 | 0.00 | 0.00 | 0.00 | 68 | 1014.0 |
| 20260505221731 | 23 | 197 | 6.4 | 9.7 | 0.00 | 0.00 | 0.00 | 69 | 1014.2 |
| 20260505221227 | 23 | 171 | 8.0 | 11.3 | 0.00 | 0.00 | 0.00 | 68 | 1013.9 |
| 20260505220724 | 23 | 228 | 4.8 | 8.0 | 0.00 | 0.00 | 0.00 | 67 | 1014.0 |
| 20260505220222 | 22 | 162 | 8.0 | 11.3 | 0.00 | 0.00 | 0.00 | 68 | 1014.1 |
| 20260505215720 | 23 | 158 | 9.7 | 12.9 | 0.00 | 0.00 | 0.00 | 68 | 1014.1 |
| 20260505215217 | 23 | 166 | 6.4 | 8.0 | 0.00 | 0.00 | 0.00 | 69 | 1014.1 |
| 20260505214715 | 23 | 184 | 9.7 | 11.3 | 0.00 | 0.00 | 0.00 | 67 | 1014.0 |
| 20260505214212 | 23 | 162 | 8.0 | 11.3 | 0.00 | 0.00 | 0.00 | 68 | 1014.0 |
| 20260505213709 | 23 | 176 | 8.0 | 9.7 | 0.00 | 0.00 | 0.00 | 68 | 1014.1 |
| 20260505213206 | 23 | 191 | 8.0 | 11.3 | 0.00 | 0.00 | 0.00 | 65 | 1013.8 |
| 20260505212702 | 23 | 169 | 8.0 | 8.0 | 0.00 | 0.00 | 0.00 | 67 | 1013.8 |
| 20260505212200 | 23 | 178 | 8.0 | 11.3 | 0.00 | 0.00 | 0.00 | 66 | 1013.8 |
| 20260505211656 | 23 | 174 | 8.0 | 9.7 | 0.00 | 0.00 | 0.00 | 66 | 1013.8 |
| 20260505211154 | 23 | 181 | 6.4 | 8.0 | 0.00 | 0.00 | 0.00 | 68 | 1013.9 |
| 20260505210650 | 23 | 133 | 4.8 | 4.8 | 0.00 | 0.00 | 0.00 | 68 | 1014.0 |
| 20260505210141 | 23 | 150 | 4.8 | 4.8 | 0.00 | 0.00 | 0.00 | 68 | 1013.9 |
| 20260505205638 | 23 | 159 | 4.8 | 4.8 | 0.00 | 0.00 | 0.00 | 67 | 1013.9 |
| 20260505205137 | 24 | 147 | 4.8 | 8.0 | 0.00 | 0.00 | 0.00 | 68 | 1013.8 |
| 20260505204633 | 23 | 171 | 8.0 | 9.7 | 0.00 | 0.00 | 0.00 | 67 | 1013.7 |
| 20260505204131 | 24 | 173 | 6.4 | 8.0 | 0.00 | 0.00 | 0.00 | 65 | 1014.0 |
| 20260505203628 | 25 | 161 | 4.8 | 4.8 | 0.00 | 0.00 | 0.00 | 64 | 1013.8 |
| 20260505203125 | 24 | 166 | 8.0 | 9.7 | 0.00 | 0.00 | 0.00 | 65 | 1013.7 |
| 20260505202620 | 24 | 150 | 4.8 | 4.8 | 0.00 | 0.00 | 0.00 | 65 | 1013.8 |
| 20260505202116 | 25 | 173 | 4.8 | 4.8 | 0.00 | 0.00 | 0.00 | 64 | 1014.0 |
| 20260505201613 | 24 | 158 | 4.8 | 4.8 | 0.00 | 0.00 | 0.00 | 63 | 1013.9 |
| 20260505201111 | 25 | 171 | 4.8 | 8.0 | 0.00 | 0.00 | 0.00 | 65 | 1013.9 |
| 20260505200609 | 25 | 161 | 3.2 | 3.2 | 0.00 | 0.00 | 0.00 | 64 | 1014.2 |
| 20260505200106 | 25 | 192 | 9.7 | 11.3 | 0.00 | 0.00 | 0.00 | 61 | 1014.3 |
| 20260505195601 | 25 | 161 | 4.8 | 4.8 | 0.00 | 0.00 | 0.00 | 63 | 1014.3 |
| 20260505195059 | 25 | 143 | 3.2 | 3.2 | 0.00 | 0.00 | 0.00 | 63 | 1014.1 |
| 20260505194556 | 25 | 161 | 4.8 | 4.8 | 0.00 | 0.00 | 0.00 | 60 | 1014.5 |
| 20260505194051 | 25 | 168 | 4.8 | 4.8 | 0.00 | 0.00 | 0.00 | 62 | 1014.6 |
| 20260505193548 | 25 | 201 | 9.7 | 11.3 | 0.00 | 0.00 | 0.00 | 58 | 1014.8 |
| 20260505193045 | 25 | 130 | 3.2 | 3.2 | 0.00 | 0.00 | 0.00 | 61 | 1014.6 |
| 20260505192544 | 26 | 198 | 8.0 | 9.7 | 0.00 | 0.00 | 0.00 | 56 | 1014.7 |
| 20260505192041 | 26 | 305 | 3.2 | 3.2 | 0.00 | 0.00 | 0.00 | 55 | 1014.8 |
| 20260505191540 | 26 | 234 | 3.2 | 8.0 | 0.00 | 0.00 | 0.00 | 53 | 1014.8 |
| 20260505191038 | 26 | 216 | 1.6 | 3.2 | 0.00 | 0.00 | 0.00 | 58 | 1014.8 |
| 20260505190532 | 26 | 249 | 3.2 | 4.8 | 0.00 | 0.00 | 0.00 | 56 | 1014.8 |
| 20260505190029 | 26 | 159 | 4.8 | 4.8 | 0.00 | 0.00 | 0.00 | 59 | 1014.8 |
| 20260505185525 | 26 | 249 | 3.2 | 4.8 | 0.00 | 0.00 | 0.00 | 56 | 1015.1 |
| 20260505185022 | 26 | 177 | 6.4 | 8.0 | 0.00 | 0.00 | 0.00 | 53 | 1015.2 |
| 20260505184519 | 25 | 155 | 3.2 | 3.2 | 0.00 | 0.00 | 0.00 | 55 | 1014.9 |
| 20260505184015 | 26 | 183 | 6.4 | 8.0 | 0.00 | 0.00 | 0.00 | 56 | 1015.2 |
| 20260505183512 | 26 | 180 | 4.8 | 4.8 | 0.00 | 0.00 | 0.00 | 54 | 1015.1 |
| 20260505183009 | 26 | 273 | 1.6 | 3.2 | 0.00 | 0.00 | 0.00 | 55 | 1015.2 |
| 20260505182506 | 26 | 151 | 8.0 | 9.7 | 0.00 | 0.00 | 0.00 | 56 | 1015.2 |
| 20260505182003 | 26 | 164 | 4.8 | 11.3 | 0.00 | 0.00 | 0.00 | 55 | 1015.5 |
| 20260505181459 | 26 | 226 | 1.6 | 1.6 | 0.00 | 0.00 | 0.00 | 56 | 1015.4 |
| 20260505180956 | 26 | 212 | 6.4 | 8.0 | 0.00 | 0.00 | 0.00 | 55 | 1015.3 |
| 20260505180452 | 25 | 182 | 4.8 | 4.8 | 0.00 | 0.00 | 0.00 | 55 | 1015.1 |
| 20260505175949 | 25 | 241 | 1.6 | 3.2 | 0.00 | 0.00 | 0.00 | 55 | 1015.3 |
| 20260505175445 | 25 | 224 | 6.4 | 9.7 | 0.00 | 0.00 | 0.00 | 56 | 1015.5 |
| 20260505174942 | 25 | 177 | 6.4 | 8.0 | 0.00 | 0.00 | 0.00 | 55 | 1015.4 |
| 20260505174439 | 25 | 197 | 6.4 | 11.3 | 0.00 | 0.00 | 0.00 | 54 | 1015.5 |
| 20260505173935 | 25 | 182 | 4.8 | 4.8 | 0.00 | 0.00 | 0.00 | 58 | 1015.4 |
| 20260505173431 | 25 | 223 | 1.6 | 3.2 | 0.00 | 0.00 | 0.00 | 59 | 1015.5 |
| 20260505172929 | 24 | 184 | 4.8 | 4.8 | 0.00 | 0.00 | 0.00 | 58 | 1015.7 |
| 20260505172428 | 24 | 169 | 4.8 | 4.8 | 0.00 | 0.00 | 0.00 | 59 | 1015.8 |
| 20260505171926 | 25 | 175 | 4.8 | 4.8 | 0.00 | 0.00 | 0.00 | 57 | 1015.6 |
| 20260505171423 | 25 | 188 | 4.8 | 4.8 | 0.00 | 0.00 | 0.00 | 55 | 1015.7 |
| 20260505170920 | 25 | 161 | 1.6 | 1.6 | 0.00 | 0.00 | 0.00 | 57 | 1015.9 |
| 20260505170416 | 25 | 182 | 4.8 | 4.8 | 0.00 | 0.00 | 0.00 | 60 | 1016.0 |
| 20260505165912 | 25 | 165 | 4.8 | 4.8 | 0.00 | 0.00 | 0.00 | 56 | 1016.0 |
| 20260505165409 | 24 | 332 | 3.2 | 4.8 | 0.00 | 0.00 | 0.00 | 57 | 1016.1 |
| 20260505164904 | 23 | 148 | 1.6 | 3.2 | 0.00 | 0.00 | 0.00 | 60 | 1016.1 |
| 20260505164401 | 24 | 83 | 3.2 | 4.8 | 0.00 | 0.00 | 0.00 | 57 | 1016.1 |
| 20260505163859 | 23 | 170 | 1.6 | 3.2 | 0.00 | 0.00 | 0.00 | 56 | 1016.3 |
| 20260505163358 | 23 | 109 | 1.6 | 1.6 | 0.00 | 0.00 | 0.00 | 58 | 1016.3 |
| 20260505162856 | 23 | 131 | 4.8 | 4.8 | 0.00 | 0.00 | 0.00 | 59 | 1016.1 |
| 20260505162351 | 23 | 126 | 6.4 | 8.0 | 0.00 | 0.00 | 0.00 | 57 | 1016.1 |
| 20260505161849 | 23 | 193 | 1.6 | 3.2 | 0.00 | 0.00 | 0.00 | 59 | 1016.4 |
| 20260505161345 | 23 | 150 | 4.8 | 8.0 | 0.00 | 0.00 | 0.00 | 54 | 1016.3 |
| 20260505160843 | 23 | 182 | 3.2 | 3.2 | 0.00 | 0.00 | 0.00 | 60 | 1016.7 |
| 20260505160341 | 23 | 156 | 4.8 | 4.8 | 0.00 | 0.00 | 0.00 | 61 | 1016.6 |
| 20260505153319 | 22 | 148 | 4.8 | 8.0 | 0.00 | 0.00 | 0.00 | 64 | 1016.6 |
| 20260505152816 | 22 | 139 | 4.8 | 4.8 | 0.00 | 0.00 | 0.00 | 65 | 1016.4 |
| 20260505152313 | 22 | 158 | 4.8 | 4.8 | 0.00 | 0.00 | 0.00 | 63 | 1016.6 |
| 20260505151808 | 22 | 139 | 4.8 | 4.8 | 0.00 | 0.00 | 0.00 | 63 | 1016.8 |
| 20260505151305 | 22 | 142 | 3.2 | 3.2 | 0.00 | 0.00 | 0.00 | 64 | 1016.7 |
| 20260505150802 | 22 | 174 | 4.8 | 8.0 | 0.00 | 0.00 | 0.00 | 63 | 1016.6 |
| 20260505150259 | 22 | 162 | 4.8 | 4.8 | 0.00 | 0.00 | 0.00 | 65 | 1016.6 |
| 20260505140229 | 20 | 178 | 3.2 | 4.8 | 0.00 | 0.00 | 0.00 | 70 | 1016.8 |